Date String (YYYY-MM-DD hh:mm:ss) UTC,Instrument flags,Ambient pressure (hPa),Sample flow (lpm),Bypass flow (lpm),Sample temperature (°C),Ambient temperature (°C),ASC tube jacket temperature (°C),LED temperature (°C),Box temperature (°C),Sample RH (%),Span deviation,Mass concentration (μg/m³),Mass concentration (μg/m³),Mass concentration (μg/m³)
DateTimeUTC,F1_M11,P_M11,Q1_M11,Q2_M11,T1_M11,T2_M11,T3_M11,T4_M11,T5_M11,U1_M11,ZSPAN_M11,X2_M11,X0_M11,X1_M11
2022-05-15 04:00:00,,0827.3,5.00,0.00,29.7,28.6,00.0,38.5,31.5,10.7,0000.0,0003.98,0011.35,0002.51
2022-05-15 04:01:00,,0827.3,5.00,0.00,29.7,28.6,00.0,38.6,31.5,10.7,0000.0,0003.96,0012.18,0002.49
2022-05-15 04:02:00,,0827.3,4.99,0.00,29.8,28.7,00.0,38.6,31.5,10.7,0000.0,0003.97,0012.56,0002.48
2022-05-15 04:03:00,,0827.3,4.99,0.00,29.8,28.7,00.0,38.6,31.6,10.6,0000.0,0004.01,0012.25,0002.47
2022-05-15 04:04:00,,0827.3,5.00,0.00,29.8,28.7,00.0,38.6,31.6,10.6,0000.0,0003.95,0011.44,0002.48
2022-05-15 04:05:00,,0827.3,5.00,0.00,29.8,28.7,00.0,38.6,31.6,10.6,0000.0,0003.97,0011.01,0002.47
2022-05-15 04:06:00,,0827.3,4.99,0.00,29.8,28.8,00.0,38.7,31.6,10.5,0000.0,0003.94,0010.57,0002.47
2022-05-15 04:07:00,,0827.4,5.00,0.00,29.9,28.8,00.0,38.7,31.7,10.5,0000.0,0003.85,0010.76,0002.47
2022-05-15 04:08:00,,0827.4,5.00,0.00,29.9,28.8,00.0,38.7,31.7,10.4,0000.0,0003.78,0010.59,0002.46
2022-05-15 04:09:00,,0827.4,5.00,0.00,29.9,28.8,00.0,38.7,31.7,10.3,0000.0,0003.75,0010.41,0002.48
2022-05-15 04:10:00,,0827.4,4.99,0.00,29.9,28.8,00.0,38.7,31.7,10.4,0000.0,0003.72,0010.29,0002.48
2022-05-15 04:11:00,,0827.4,5.01,0.00,29.9,28.8,00.0,38.7,31.7,10.4,0000.0,0003.69,0010.17,0002.47
2022-05-15 04:12:00,,0827.4,5.00,0.00,30.0,28.8,00.0,38.8,31.8,10.3,0000.0,0003.70,0009.56,0002.48
2022-05-15 04:13:00,,0827.4,4.99,0.00,30.0,28.6,00.0,38.8,31.7,10.3,0000.0,0003.70,0010.47,0002.48
2022-05-15 04:14:00,,0827.4,5.01,0.00,29.9,26.4,00.0,38.8,31.2,10.3,0000.0,0003.75,0010.42,0002.47
2022-05-15 04:15:00,,0827.4,5.00,0.00,29.7,25.4,00.0,38.7,31.0,10.4,0000.0,0003.83,0010.78,0002.46
2022-05-15 04:16:00,,0827.4,5.00,0.00,29.6,25.7,00.0,38.7,31.1,10.5,0000.0,0003.78,0010.57,0002.45
2022-05-15 04:17:00,,0827.4,4.99,0.00,29.5,26.1,00.0,38.6,31.1,10.6,0000.0,0003.76,0011.36,0002.43
2022-05-15 04:18:00,,0827.3,5.00,0.00,29.5,26.6,00.0,38.6,31.1,10.7,0000.0,0003.81,0011.89,0002.43
2022-05-15 04:19:00,,0827.3,5.00,0.00,29.5,27.0,00.0,38.5,31.1,10.7,0000.0,0003.80,0013.00,0002.42
2022-05-15 04:20:00,,0827.3,5.00,0.00,29.5,27.3,00.0,38.5,31.2,10.7,0000.0,0003.80,0013.25,0002.39
2022-05-15 04:21:00,,0827.3,5.00,0.00,29.5,27.5,00.0,38.5,31.2,10.7,0000.0,0003.83,0013.61,0002.39
2022-05-15 04:22:00,,0827.3,4.99,0.00,29.5,27.7,00.0,38.5,31.3,10.7,0000.0,0003.84,0013.71,0002.40
2022-05-15 04:23:00,,0827.3,5.01,0.00,29.5,27.9,00.0,38.5,31.3,11.0,0000.0,0003.82,0013.60,0002.38
2022-05-15 04:24:00,,0827.3,5.01,0.00,29.6,28.0,00.0,38.5,31.3,10.9,0000.0,0003.79,0012.25,0002.37
2022-05-15 04:25:00,,0827.3,4.98,0.00,29.6,28.1,00.0,38.5,31.3,10.7,0000.0,0003.72,0012.28,0002.35
2022-05-15 04:26:00,,0827.3,5.01,0.00,29.6,28.2,00.0,38.5,31.4,10.7,0000.0,0003.65,0012.74,0002.35
2022-05-15 04:27:00,,0827.3,5.00,0.00,29.6,28.3,00.0,38.5,31.4,10.7,0000.0,0003.63,0013.32,0002.34
2022-05-15 04:28:00,,0827.3,4.99,0.00,29.6,28.4,00.0,38.5,31.4,10.7,0000.0,0003.65,0012.71,0002.36
2022-05-15 04:29:00,,0827.3,5.01,0.00,29.7,28.5,00.0,38.5,31.4,10.7,0000.0,0003.68,0011.98,0002.35
2022-05-15 04:30:00,,0827.3,5.00,0.00,29.7,28.5,00.0,38.5,31.5,10.7,0000.0,0003.65,0011.98,0002.36
2022-05-15 04:31:00,,0827.3,5.00,0.00,29.7,28.6,00.0,38.6,31.5,10.7,0000.0,0003.63,0012.59,0002.37
2022-05-15 04:32:00,,0827.3,4.99,0.00,29.7,28.6,00.0,38.6,31.5,10.5,0000.0,0003.60,0012.66,0002.37
2022-05-15 04:33:00,,0827.4,5.01,0.00,29.8,28.6,00.0,38.6,31.5,10.4,0000.0,0003.57,0012.58,0002.36
2022-05-15 04:34:00,,0827.4,5.00,0.00,29.8,28.7,00.0,38.6,31.5,10.4,0000.0,0003.64,0013.06,0002.37
2022-05-15 04:35:00,,0827.4,5.00,0.00,29.8,28.7,00.0,38.6,31.6,10.4,0000.0,0003.66,0013.24,0002.38
2022-05-15 04:36:00,,0827.4,4.99,0.00,29.8,28.8,00.0,38.6,31.6,10.5,0000.0,0003.67,0013.74,0002.39
2022-05-15 04:37:00,,0827.4,5.01,0.00,29.8,28.8,00.0,38.7,31.6,10.5,0000.0,0003.67,0013.69,0002.40
2022-05-15 04:38:00,,0827.4,5.00,0.00,29.9,28.8,00.0,38.7,31.7,10.5,0000.0,0003.67,0013.44,0002.40
2022-05-15 04:39:00,,0827.5,5.00,0.00,29.9,28.8,00.0,38.7,31.7,10.5,0000.0,0003.68,0013.52,0002.39
2022-05-15 04:40:00,,0827.5,5.00,0.00,29.9,28.8,00.0,38.7,31.7,10.5,0000.0,0003.64,0013.62,0002.37
2022-05-15 04:41:00,,0827.5,5.00,0.00,29.9,28.8,00.0,38.7,31.7,10.7,0000.0,0003.67,0012.90,0002.37
2022-05-15 04:42:00,,0827.5,5.00,0.00,29.9,28.8,00.0,38.7,31.7,10.8,0000.0,0003.69,0012.44,0002.37
2022-05-15 04:43:00,,0827.5,4.99,0.00,30.0,28.9,00.0,38.8,31.7,10.8,0000.0,0003.72,0012.30,0002.39
2022-05-15 04:44:00,,0827.6,5.00,0.00,30.0,28.9,00.0,38.8,31.8,10.5,0000.0,0003.73,0012.55,0002.39
2022-05-15 04:45:00,,0827.5,5.00,0.00,30.0,28.9,00.0,38.8,31.8,10.6,0000.0,0003.67,0012.27,0002.39
2022-05-15 04:46:00,,0827.5,5.00,0.00,30.0,28.9,00.0,38.8,31.8,10.6,0000.0,0003.62,0012.01,0002.37
2022-05-15 04:47:00,,0827.5,5.00,0.00,30.0,28.9,00.0,38.8,31.7,10.4,0000.0,0003.57,0011.20,0002.37
2022-05-15 04:48:00,,0827.5,5.00,0.00,30.0,28.9,00.0,38.9,31.8,10.4,0000.0,0003.57,0010.51,0002.36
2022-05-15 04:49:00,,0827.5,4.99,0.00,30.1,28.9,00.0,38.9,31.8,10.2,0000.0,0003.59,0010.30,0002.37
2022-05-15 04:50:00,,0827.6,5.01,0.00,30.1,28.9,00.0,38.9,31.9,10.2,0000.0,0003.61,0010.26,0002.35
2022-05-15 04:51:00,,0827.5,5.01,0.00,30.1,28.5,00.0,38.9,31.7,10.3,0000.0,0003.62,0009.78,0002.34
2022-05-15 04:52:00,,0827.5,5.00,0.00,30.0,26.3,00.0,38.9,31.3,10.4,0000.0,0003.60,0009.79,0002.33
2022-05-15 04:53:00,,0827.5,5.00,0.00,29.8,25.6,00.0,38.9,31.2,10.4,0000.0,0003.59,0009.22,0002.32
2022-05-15 04:54:00,,0827.5,5.01,0.00,29.7,25.9,00.0,38.8,31.2,10.8,0000.0,0003.56,0009.10,0002.28
2022-05-15 04:55:00,,0827.5,5.00,0.00,29.7,26.3,00.0,38.7,31.2,10.7,0000.0,0003.56,0010.15,0002.26
2022-05-15 04:56:00,,0827.5,4.99,0.00,29.6,26.7,00.0,38.7,31.2,10.6,0000.0,0003.61,0010.18,0002.25
2022-05-15 04:57:00,,0827.6,5.00,0.00,29.6,27.1,00.0,38.7,31.2,11.1,0000.0,0003.64,0010.28,0002.23
2022-05-15 04:58:00,,0827.5,5.01,0.00,29.6,27.4,00.0,38.6,31.3,11.3,0000.0,0003.60,0010.17,0002.18
2022-05-15 04:59:00,,0827.5,5.00,0.00,29.6,27.7,00.0,38.6,31.3,11.2,0000.0,0003.59,0010.73,0002.16
